Hourly Data Report for June 03, 2021

WINNIPEG THE FORKS
MANITOBA
Current Station Operator: ECCC - MSC

49°53'18.008" N
97°07'46.007" W
230.00 m
5023262
71579
XWN

Download Data

Hourly Data (June 2021)
Hourly Data Report for June 3, 2021
TIME
LST
Temp Definition
°C
Dew Point Definition
°C
Rel Hum Definition
%
Precip. Amount Definition
mm

Wind Dir Definition
10's deg

Wind Spd Definition
km/h
Visibility Definition
km
Stn Press Definition
kPa
Hmdx Definition


Wind Chill Definition


Weather Definition


00:00 23.5 5.0 30 0.0 23 7   97.53     LegendNANA
01:00 23.2 7.0 35 0.0 27 5   97.63     LegendNANA
02:00 21.6 11.6 53 0.0 36 17   97.69     LegendNANA
03:00 18.6 14.1 75 0.7 2 6   97.51     LegendNANA
04:00 19.0 14.0 73 0.2 32 2   97.62     LegendNANA
05:00 19.0 14.3 74 0.0 25 3   97.70     LegendNANA
06:00 19.1 13.6 71 0.0 31 4   97.76     LegendNANA
07:00 19.7 13.7 69 0.0 33 3   97.77     LegendNANA
08:00 21.6 12.9 57 0.0 34 6   97.81     LegendNANA
09:00 23.8 13.4 52 0.0 35 8   97.82 27   LegendNANA
10:00 25.3 10.8 40 0.0 6 6   97.83 27   LegendNANA
11:00 26.4 11.7 40 0.0 2 7   97.86 29   LegendNANA
12:00 26.9 11.0 37 0.0 5 6   97.87 29   LegendNANA
13:00 27.7 11.4 36 0.0 3 5   97.86 30   LegendNANA
14:00 28.1 10.7 34 0.0 1 6   97.85 30   LegendNANA
15:00 28.8 8.6 28 0.0 3 6   97.86 29   LegendNANA
16:00 28.9 9.4 30 0.0 35 5   97.84 30   LegendNANA
17:00 29.7 9.7 29 0.0 5 2   97.81 31   LegendNANA
18:00 29.4 9.5 29 0.0 4 5   97.83 30   LegendNANA
19:00 28.5 9.2 30 0.0 6 5   97.81 29   LegendNANA
20:00 26.6 8.5 32 0.0 8 4   97.79 27   LegendNANA
21:00 24.5 8.7 37 0.0 8 3   97.80 25   LegendNANA
22:00 23.3 9.4 41 0.0 11 1   97.80     LegendNANA
23:00 22.6 9.6 43 0.0 8 2   97.77     LegendNANA

Notes on Data Quality.

Legend

  • E = Estimated
  • M = Missing
  • NA = Not Available*
  • [empty] = Indicates an unobserved value
Date modified: